{"data":{"norad_id":48368,"epoch":"2026-05-24T22:52:04.715040Z","epoch_age_seconds":85916,"freshness":"FRESH","line1":"1 48368U 21038R   26144.95283235  .00003544  00000+0  13170-3 0  9997","line2":"2 48368  53.1612 353.5506 0001160 104.1184 255.9946 15.30201867278902","mean_motion":15.30201867,"eccentricity":0.000116,"inclination_deg":53.1612,"raan_deg":353.5506,"arg_perigee_deg":104.1184,"mean_anomaly_deg":255.9946,"bstar":0.0001317,"rev_number":27890,"period_min":94.105230888468,"perigee_km":474.41450670611,"apogee_km":476.00448309293,"semimajor_km":6853.3464948995,"source":"CELESTRAK","updated_at":"2026-05-25T13:38:16.687201Z"}}